Regional Weather Roundup
Issued by NWS

Home | Current Version | Previous Version | Graphics & Text | Print | Product List | Glossary On
Versions: 1 2 3 4 5 6 7 8 9 10 11 12 13 14 15 16 17 18 19 20 21 22 23 24 25 26 27
000
ASUS45 KBOI 110110
RWRID

IDAHO REGIONAL WEATHER ROUNDUP
NATIONAL WEATHER SERVICE BOISE ID
600 PM MST SUN DEC 10 2017

NOTE: "FAIR" INDICATES FEW OR NO CLOUDS BELOW 12000 FEET
WITH NO SIGNIFICANT WEATHER AND/OR OBSTRUCTIONS TO VISIBILITY

IDZ012-014-110200-
SOUTHWEST IDAHO


CITY           SKY/WX    TMP DP  RH WIND       PRES   REMARKS
BOISE          CLOUDY    26  20  77 CALM      30.66S
CALDWELL       CLOUDY    28  22  78 CALM      30.70S
MOUNTAIN HOME  CLOUDY    23  23 100 S5        30.66S WCI  17
$$

IDZ016-017-110200-
SOUTHCENTRAL IDAHO


CITY           SKY/WX    TMP DP  RH WIND       PRES   REMARKS
BURLEY         CLOUDY    24  18  77 CALM      30.57R
JEROME         CLOUDY    21  18  88 SW5       30.59S WCI  15
TWIN FALLS     CLOUDY    17  15  92 CALM      30.59R
$$

IDZ019>023-110200-
SOUTHEAST IDAHO


CITY           SKY/WX    TMP DP  RH WIND       PRES   REMARKS
IDAHO FALLS    CLOUDY    15  14  95 N3        30.59S
POCATELLO      CLOUDY    22  16  78 NE3       30.58S
REXBURG        CLOUDY    22  17  81 NE7       30.58R WCI  13
$$

IDZ006-010-011-018-031-032-110200-
CENTRAL IDAHO MOUNTAINS


CITY           SKY/WX    TMP DP  RH WIND       PRES   REMARKS
MCCALL         MOCLDY    20  14  77 CALM      30.52S
STANLEY          N/A     12   9  87 CALM      30.58S
SALMON         CLOUDY    17  14  88 N3        30.71F
CHALLIS        MOCLDY    17   9  70 CALM      30.61S
$$

IDZ002-004-006-007-026-110200-
NORTHERN IDAHO


CITY           SKY/WX    TMP DP  RH WIND       PRES   REMARKS
LEWISTON       MOCLDY    28  24  85 SW6       30.62S WCI  22
LOWELL           N/A     29  27  92 N3        30.62R
COEUR D`ALENE  CLOUDY    27  24  89 N6        30.60S WCI  20
MULLAN PASS    MOCLDY    38  32  79 SW3       30.47S
$$




USA.gov is the U.S. government's official web portal to all federal, state and local government web resources and services.